Port Hope, MI

8:03 PM EST on December 16, 2017 (GMT -0500)
Port Hope

Weather History for KP58 - November, 2012

Change the Weather History Date:

Monday, November 12, 2012

  Actual Average Record
Temperature  
Mean Temperature 46 °F -  
Max Temperature 60 °F 44 °F 62 °F (2005)
Min Temperature 33 °F 34 °F 23 °F (2004)
Degree Days  
Heating Degree Days 18    
Moisture  
Dew Point 35 °F    
Average Humidity 69    
Maximum Humidity 93    
Minimum Humidity 42    
Precipitation  
Precipitation 0.33 in - - ()
Sea Level Pressure  
Sea Level Pressure 29.94 in    
Wind  
Wind Speed 9 mph (SW)    
Max Wind Speed 15 mph    
Max Gust Speed 25 mph    
Averages and records for this station are not official NWS values.
T = Trace of Precipitation, MM = Missing Value Source: NWS Daily Summary

Daily Weather History Graph

Daily Weather History Graph

Search for Another Location

Airport or City:

Trip Planner

Search our weather history database for the weather conditions in past years. The results will help you decide how hot, cold, wet, or windy it might be!

Date:

Astronomy

Nov. 12, 2012 Rise Set
Actual Time 7:22 AM EST 5:07 PM EST
Civil Twilight 6:51 AM EST 5:38 PM EST
Nautical Twilight 6:17 AM EST 6:13 PM EST
Astronomical Twilight 5:43 AM EST 6:47 PM EST
Moon 5:45 AM EST (11/12) 4:12 PM EST (11/12)
Length of Visible Light 10h 46m
Length of Day
9h 44m
Waning Crescent, 2% of the Moon is Illuminated
Nov 12
Waning Crescent
Nov 13
New
Nov 20
First Quarter
Nov 28
Full
Dec 6
Last Quarter

Hourly Weather History & Observations

Time (EST) Temp. Windchill Dew Point Humidity Pressure Visibility Wind Dir Wind Speed Gust Speed Precip Events Conditions
12:51 AM 60.1 °F - 37.0 °F 42% 29.87 in - South 6.9 mph - N/A   Unknown
1:51 AM 59.0 °F - 37.0 °F 44% 29.86 in - South 8.1 mph - N/A   Unknown
2:51 AM 59.0 °F - 37.0 °F 44% 29.84 in - Variable 6.9 mph 18.4 mph N/A   Unknown
3:51 AM 59.0 °F - 39.0 °F 48% 29.83 in - South 9.2 mph 16.1 mph N/A   Unknown
4:51 AM 59.0 °F - 42.1 °F 53% 29.83 in - South 8.1 mph 17.3 mph N/A   Unknown
5:51 AM 55.0 °F - 48.9 °F 80% 29.85 in - Variable 5.8 mph - 0.03 in   Unknown
6:51 AM 54.0 °F - 51.1 °F 90% 29.84 in - Variable 5.8 mph - 0.03 in   Unknown
7:51 AM 53.1 °F - 51.1 °F 93% 29.85 in - SW 8.1 mph - 0.14 in   Unknown
8:51 AM 51.1 °F - 48.0 °F 89% 29.86 in - West 8.1 mph - 0.07 in   Unknown
9:51 AM 46.9 °F - 43.0 °F 86% 29.87 in - WSW 9.2 mph 19.6 mph 0.02 in   Unknown
10:51 AM 46.0 °F 41.4 °F 41.0 °F 83% 29.89 in - WSW 9.2 mph 21.9 mph 0.01 in   Unknown
11:51 AM 46.0 °F 41.4 °F 41.0 °F 83% 29.89 in - WSW 9.2 mph 17.3 mph 0.01 in   Unknown
12:51 PM 43.0 °F 37.2 °F 39.0 °F 86% 29.89 in - WSW 10.4 mph 17.3 mph 0.02 in   Unknown
1:51 PM 42.1 °F 36.6 °F 36.0 °F 79% 29.91 in - WSW 9.2 mph 23.0 mph N/A   Unknown
2:51 PM 41.0 °F 33.5 °F 33.1 °F 73% 29.93 in - WSW 13.8 mph 23.0 mph N/A   Unknown
3:51 PM 39.0 °F 31.4 °F 28.9 °F 67% 29.95 in - WSW 12.7 mph 21.9 mph N/A   Unknown
4:51 PM 37.9 °F 29.2 °F 28.9 °F 70% 29.97 in - WSW 15.0 mph 24.2 mph N/A   Unknown
5:51 PM 37.0 °F 29.3 °F 25.0 °F 62% 30.01 in - West 11.5 mph 24.2 mph N/A   Unknown
6:51 PM 36.0 °F 28.5 °F 24.1 °F 62% 30.04 in - WSW 10.4 mph 25.3 mph N/A   Unknown
7:51 PM 35.1 °F 27.4 °F 21.9 °F 59% 30.07 in - West 10.4 mph 20.7 mph N/A   Unknown
8:51 PM 34.0 °F 25.5 °F 23.0 °F 64% 30.09 in - West 11.5 mph 25.3 mph N/A   Unknown
9:51 PM 33.1 °F 24.4 °F 21.9 °F 64% 30.14 in - WSW 11.5 mph 19.6 mph N/A   Unknown
10:51 PM 34.0 °F 27.2 °F 24.1 °F 67% 30.15 in - SW 8.1 mph 18.4 mph N/A   Unknown
11:51 PM 33.1 °F 24.9 °F 24.1 °F 70% 30.19 in - WSW 10.4 mph 18.4 mph N/A   Unknown